Weather History for Dodge City, KS

Change the Weather History Date:

Sunday, February 17, 2013

  Actual Average Record
Temperature  
Mean Temperature 46 °F -  
Max Temperature 70 °F 48 °F 85 °F (1970)
Min Temperature 23 °F 24 °F -8 °F (1903)
Degree Days  
Heating Degree Days 18    
Moisture  
Dew Point 17 °F    
Average Humidity 33    
Maximum Humidity 65    
Minimum Humidity 5    
Precipitation  
Precipitation 0.00 in - - ()
Sea Level Pressure  
Sea Level Pressure 29.75 in    
Wind  
Wind Speed 9 mph (SSW)    
Max Wind Speed 17 mph    
Max Gust Speed 24 mph    
Visibility 10 miles    
Events      
Averages and records for this station are not official NWS values.
T = Trace of Precipitation, MM = Missing Value Source: NWS Daily Summary

Daily Weather History Graph

Daily Weather History Graph

Search for Another Location

Airport:

Trip Planner

Search our weather history database for the weather conditions in past years. The results will help you decide how hot, cold, wet, or windy it might be!

Date:

Astronomy

Feb. 17, 2013 Rise Set
Actual Time 7:26 AM CST 6:21 PM CST
Civil Twilight 7:00 AM CST 6:48 PM CST
Nautical Twilight 6:29 AM CST 7:18 PM CST
Astronomical Twilight 5:58 AM CST 7:49 PM CST
Moon 11:29 AM CST (2/17) 1:10 AM CST (2/17)
Length of Visible Light 11h 48m
Length of Day
10h 54m
Waxing Crescent, 49% of the Moon is Illuminated
Feb 17
Waxing Crescent
Feb 17
First Quarter
Feb 25
Full
Mar 4
Last Quarter
Mar 11
New

Hourly Weather History & Observations

Time (CST) Temp. Windchill Dew Point Humidity Pressure Visibility Wind Dir Wind Speed Gust Speed Precip Events Conditions
12:52 AM 33.1 °F 26.9 °F 18.0 °F 54% 29.98 in 10.0 mi SW 6.9 mph - N/A   Clear
1:52 AM 36.0 °F 30.3 °F 16.0 °F 44% 29.95 in 10.0 mi West 6.9 mph - N/A   Clear
2:52 AM 32.0 °F 24.8 °F 15.1 °F 50% 29.95 in 10.0 mi West 8.1 mph - N/A   Clear
3:52 AM 28.0 °F 21.7 °F 15.1 °F 58% 29.94 in 10.0 mi WNW 5.8 mph - N/A   Clear
4:52 AM 28.9 °F 21.9 °F 15.1 °F 56% 29.93 in 10.0 mi SSW 6.9 mph - N/A   Clear
5:52 AM 28.0 °F 22.8 °F 15.1 °F 58% 29.91 in 10.0 mi West 4.6 mph - N/A   Clear
6:52 AM 24.1 °F 15.2 °F 14.0 °F 65% 29.92 in 10.0 mi SW 8.1 mph - N/A   Clear
7:52 AM 28.0 °F 20.8 °F 15.1 °F 58% 29.91 in 10.0 mi SW 6.9 mph - N/A   Clear
8:52 AM 39.0 °F 34.8 °F 19.0 °F 45% 29.88 in 10.0 mi SSW 5.8 mph - N/A   Clear
9:52 AM 48.9 °F - 21.0 °F 33% 29.85 in 10.0 mi SSW 10.4 mph - N/A   Clear
10:52 AM 55.9 °F - 16.0 °F 21% 29.83 in 10.0 mi SSW 13.8 mph - N/A   Clear
11:52 AM 61.0 °F - 15.1 °F 17% 29.79 in 10.0 mi SW 12.7 mph - N/A   Clear
12:52 PM 64.9 °F - 12.9 °F 13% 29.75 in 10.0 mi SW 15.0 mph 24.2 mph N/A   Clear
1:52 PM 68.0 °F - 12.0 °F 11% 29.69 in 10.0 mi SSW 11.5 mph 19.6 mph N/A   Clear
2:52 PM 70.0 °F - 14.0 °F 12% 29.65 in 10.0 mi South 16.1 mph - N/A   Clear
3:52 PM 68.0 °F - 15.1 °F 13% 29.63 in 10.0 mi South 16.1 mph 24.2 mph N/A   Clear
5:52 PM 63.0 °F - 15.1 °F 16% 29.58 in 10.0 mi South 16.1 mph - N/A   Clear
6:52 PM 57.0 °F - 19.9 °F 24% 29.60 in 10.0 mi South 17.3 mph - N/A   Clear
7:52 PM 52.0 °F - 25.0 °F 35% 29.58 in 10.0 mi South 15.0 mph - N/A   Clear
8:52 PM 48.9 °F - 25.0 °F 39% 29.56 in 10.0 mi South 15.0 mph - N/A   Clear
9:52 PM 46.9 °F - 24.1 °F 41% 29.52 in 10.0 mi South 11.5 mph - N/A   Clear
11:52 PM 45.0 °F 39.7 °F 23.0 °F 42% 29.43 in 10.0 mi South 10.4 mph - N/A   Clear